Imperial, NE

4:23 PM MST on December 04, 2016 (GMT -0700)
Imperial Municipal

Weather History for KIML - October, 2011

Change the Weather History Date:

Tuesday, October 11, 2011

  Actual Average Record
Temperature  
Mean Temperature 57 °F 53 °F  
Max Temperature 69 °F 67 °F 96 °F (2015)
Min Temperature 44 °F 39 °F 13 °F (1896)
Degree Days  
Heating Degree Days 8 12  
Month to date heating degree days 53 113  
Cooling Degree Days 0 0  
Month to date cooling degree days 17 3  
Year to date cooling degree days 1096 960  
Growing Degree Days 6 (Base 50)    
Moisture  
Dew Point 46 °F    
Average Humidity 67    
Maximum Humidity 100    
Minimum Humidity 33    
Precipitation  
Precipitation T in 0.05 in 1.77 in (2005)
Sea Level Pressure  
Sea Level Pressure 29.80 in    
Wind  
Wind Speed 6 mph (SW)    
Max Wind Speed 16 mph    
Max Gust Speed 21 mph    
Visibility 5 miles    
Events Fog    
T = Trace of Precipitation, MM = Missing Value Source: NWS Daily Summary

Daily Weather History Graph

Daily Weather History Graph

Search for Another Location

Airport or City:

Trip Planner

Search our weather history database for the weather conditions in past years. The results will help you decide how hot, cold, wet, or windy it might be!

Date:

Astronomy

Oct. 11, 2011 Rise Set
Actual Time 6:52 AM MDT 6:12 PM MDT
Civil Twilight 6:25 AM MDT 6:40 PM MDT
Nautical Twilight 5:53 AM MDT 7:11 PM MDT
Astronomical Twilight 5:22 AM MDT 7:43 PM MDT
Moon 5:45 PM MDT (10/11) 6:33 AM MDT (10/11)
Length of Visible Light 12h 14m
Length of Day
11h 19m
Full, 100% of the Moon is Illuminated
Oct 11
Full
Oct 11
Full
Oct 19
Last Quarter
Oct 26
New
Nov 2
First Quarter

Hourly Weather History & Observations

Time (MDT) Temp. Windchill Dew Point Humidity Pressure Visibility Wind Dir Wind Speed Gust Speed Precip Events Conditions
12:53 AM 46.0 °F 42.5 °F 41.0 °F 83% 29.86 in 10.0 mi SSE 6.9 mph - N/A   Clear
1:53 AM 46.0 °F 43.1 °F 44.1 °F 93% 29.84 in 9.0 mi SSE 5.8 mph - N/A   Clear
2:53 AM 44.1 °F 42.5 °F 43.0 °F 96% 29.82 in 4.0 mi South 3.5 mph - N/A   Clear
3:09 AM 44.6 °F 41.4 °F 44.6 °F 100% 29.85 in 3.0 mi South 5.8 mph - N/A   Scattered Clouds
3:13 AM 46.4 °F 43.5 °F 44.6 °F 93% 29.85 in 3.0 mi South 5.8 mph - N/A   Mostly Cloudy
3:19 AM 48.2 °F - 46.4 °F 93% 29.85 in 1.8 mi SSW 5.8 mph - N/A   Mostly Cloudy
3:29 AM 50.0 °F - 48.2 °F 94% 29.85 in 0.5 mi South 6.9 mph - N/A Fog Fog
3:39 AM 48.2 °F - 48.2 °F 100% 29.84 in 0.2 mi SSW 10.4 mph - N/A Fog Fog
3:50 AM 48.2 °F - 48.2 °F 100% 29.85 in 0.2 mi South 6.9 mph - N/A Fog Fog
3:53 AM 48.9 °F - 48.9 °F 100% 29.82 in 0.2 mi South 6.9 mph - N/A Fog Fog
4:53 AM 48.9 °F - 48.9 °F 100% 29.81 in 0.2 mi WSW 4.6 mph - N/A Fog Fog
5:08 AM 48.2 °F - 48.2 °F 100% 29.85 in 0.2 mi WSW 5.8 mph - N/A Fog Fog
5:25 AM 48.2 °F - 48.2 °F 100% 29.85 in 0.5 mi WSW 5.8 mph - N/A Fog Fog
5:38 AM 48.2 °F - 48.2 °F 100% 29.84 in 1.0 mi SSW 4.6 mph - N/A   Overcast
5:53 AM 48.2 °F - 48.2 °F 100% 29.84 in 0.8 mi West 4.6 mph - N/A   Overcast
6:53 AM 48.2 °F - 48.2 °F 100% 29.83 in 0.2 mi WNW 3.5 mph - N/A Fog Fog
7:12 AM 48.2 °F - 48.2 °F 100% 29.83 in 0.5 mi WNW 4.6 mph - N/A Fog Fog
7:35 AM 48.2 °F - 48.2 °F 100% 29.84 in 1.5 mi WSW 3.5 mph - N/A   Overcast
7:45 AM 48.2 °F - 48.2 °F 100% 29.84 in 2.0 mi SW 4.6 mph - N/A   Overcast
8:07 AM 48.2 °F - 48.2 °F 100% 29.83 in 3.0 mi South 4.6 mph - N/A   Overcast
8:53 AM 50.0 °F - 48.9 °F 96% 29.83 in 5.0 mi SW 4.6 mph - N/A   Overcast
9:48 AM 51.8 °F - 48.2 °F 88% 29.83 in 6.0 mi SSW 4.6 mph - N/A   Scattered Clouds
9:53 AM 52.0 °F - 50.0 °F 93% 29.83 in 7.0 mi SW 4.6 mph - N/A   Scattered Clouds
10:53 AM 57.9 °F - 46.0 °F 65% 29.81 in 10.0 mi North 5.8 mph - N/A   Clear
11:53 AM 64.0 °F - 45.0 °F 50% 29.78 in 10.0 mi North 11.5 mph - N/A   Clear
12:53 PM 66.2 °F - 44.6 °F 46% 29.78 in 10.0 mi North 5.8 mph - N/A   Clear
1:53 PM 69.1 °F - 39.9 °F 35% 29.73 in 10.0 mi NW 11.5 mph - N/A   Partly Cloudy
2:53 PM 68.0 °F - 41.0 °F 37% 29.73 in 3.0 mi Calm Calm - N/A   Haze
3:53 PM 68.0 °F - 42.1 °F 39% 29.70 in 10.0 mi ENE 3.5 mph - N/A   Scattered Clouds
4:53 PM 66.0 °F - 44.1 °F 45% 29.71 in 6.0 mi North 8.1 mph - N/A   Haze
5:53 PM 64.9 °F - 44.1 °F 47% 29.73 in 10.0 mi Calm Calm - N/A   Scattered Clouds
6:24 PM 62.6 °F - 44.6 °F 52% 29.77 in 2.5 mi Calm Calm - N/A   Haze
6:36 PM 60.8 °F - 46.4 °F 59% 29.76 in 5.0 mi Calm Calm - N/A   Haze
6:53 PM 57.9 °F - 46.0 °F 65% 29.75 in 10.0 mi SE 5.8 mph - N/A   Clear
7:53 PM 53.1 °F - 48.0 °F 83% 29.77 in 10.0 mi SSE 6.9 mph - N/A   Clear
8:53 PM 52.0 °F - 48.0 °F 86% 29.79 in 10.0 mi SSW 5.8 mph - N/A   Clear
9:53 PM 52.0 °F - 44.1 °F 74% 29.78 in 10.0 mi West 8.1 mph - N/A   Clear
10:53 PM 57.0 °F - 44.1 °F 62% 29.76 in 10.0 mi West 12.7 mph - 0.00 in   Clear
11:53 PM 54.0 °F - 43.0 °F 66% 29.75 in 10.0 mi West 10.4 mph - N/A   Clear